GW5772 Weather Reports


time (UTC)temp
F
wind
direction
speed
knots
gust
knots
rain 1hr
in
rain 24hr
in
rain mn
in
humidity
%
barometer
mb
20260506213018 57 315 0.9 2.6 0.00 0.00 0.00 78 1021.3
20260506211521 56 193 0.0 3.5 0.00 0.00 0.00 80 1021.4
20260506210030 56 202 0.0 1.7 0.00 0.00 0.00 81 1021.4
20260506204541 56 136 0.9 1.7 0.00 0.00 0.00 82 1021.4
20260506203031 55 96 0.0 4.3 0.00 0.00 0.00 82 1021.1
20260506201521 54 206 0.0 4.3 0.00 0.00 0.00 82 1021.5
20260506200033 54 128 0.0 5.2 0.00 0.00 0.00 82 1021.3
20260506194524 54 219 0.9 4.3 0.00 0.00 0.00 82 1021.3
20260506193027 54 179 0.0 2.6 0.00 0.00 0.00 82 1021.2
20260506191514 54 179 0.9 1.7 0.00 0.00 0.00 84 1021.0
20260506190021 53 181 0.9 6.1 0.00 0.00 0.00 84 1020.9
20260506184525 53 190 0.9 4.3 0.00 0.00 0.00 84 1020.8
20260506183030 53 244 0.0 2.6 0.00 0.00 0.00 85 1021.0
20260506181532 53 203 0.0 2.6 0.00 0.00 0.00 84 1020.9
20260506180020 54 213 0.0 1.7 0.00 0.00 0.00 83 1020.9
20260506174522 55 159 0.0 2.6 0.00 0.00 0.00 85 1020.9
20260506173006 54 99 0.0 1.7 0.00 0.00 0.00 86 1020.6
20260506171520 54 72 0.0 1.7 0.00 0.00 0.00 86 1020.5
20260506170020 54 124 0.0 1.7 0.00 0.00 0.00 86 1020.2
20260506164522 54 240 0.0 3.5 0.00 0.00 0.00 86 1020.3
20260506163004 53 248 0.0 1.7 0.00 0.00 0.00 86 1020.3
20260506161537 53 254 0.0 2.6 0.00 0.00 0.00 87 1020.3
20260506160023 53 150 0.0 0.0 0.00 0.00 0.00 87 1020.5
20260506154521 53 185 0.0 5.2 0.00 0.00 0.00 87 1020.4
20260506153026 53 196 0.0 5.2 0.00 0.00 0.00 87 1020.4
20260506151508 53 215 0.0 3.5 0.00 0.00 0.00 87 1020.2
20260506150025 53 166 0.0 2.6 0.00 0.00 0.00 87 1020.0
20260506144518 53 101 0.0 1.7 0.00 0.00 0.00 88 1019.9
20260506143037 53 158 0.0 3.5 0.00 0.00 0.00 87 1019.6
20260506141509 53 196 0.0 1.7 0.00 0.00 0.00 87 1019.6
20260506140014 53 127 0.9 3.5 0.00 0.00 0.00 87 1019.7
20260506134514 52 99 0.0 4.3 0.00 0.00 0.00 88 1019.5
20260506133025 52 51 0.0 3.5 0.00 0.00 0.00 88 1019.2
20260506131528 52 106 0.9 3.5 0.00 0.00 0.00 88 1018.8
20260506130012 53 98 0.0 2.6 0.00 0.00 0.00 88 1018.9
20260506124517 53 192 0.0 3.5 0.00 0.00 0.00 88 1019.0
20260506123022 53 194 0.0 1.7 0.00 0.00 0.00 89 1019.1
20260506121527 52 172 0.9 4.3 0.00 0.00 0.00 90 1019.2
20260506120031 52 221 0.9 2.6 0.00 0.00 0.00 89 1018.8
20260506114519 52 240 0.0 2.6 0.00 0.00 0.00 89 1018.6
20260506111521 51 79 0.0 3.5 0.00 0.00 0.00 91 1018.5
20260506110034 51 352 0.9 2.6 0.00 0.00 0.00 91 1018.4
20260506104528 51 289 0.0 2.6 0.00 0.00 0.00 91 1018.3
20260506103017 51 179 0.9 2.6 0.00 0.00 0.00 91 1018.1
20260506101543 51 250 0.9 7.0 0.00 0.00 0.00 91 1017.9
20260506100024 51 276 0.9 4.3 0.00 0.00 0.00 91 1017.7
20260506094526 51 202 0.9 3.5 0.00 0.00 0.00 91 1017.6
20260506093016 51 352 0.9 2.6 0.00 0.00 0.00 91 1017.5
20260506091530 51 179 0.9 6.1 0.00 0.00 0.00 91 1017.4
20260506090025 51 169 0.9 7.0 0.00 0.00 0.00 90 1017.4
20260506084530 51 264 0.9 3.5 0.00 0.00 0.00 90 1017.4
20260506083012 51 263 0.9 3.5 0.00 0.00 0.00 90 1017.3
20260506081519 51 267 0.9 7.0 0.00 0.00 0.00 90 1017.2
20260506073010 52 284 0.0 4.3 0.00 0.00 0.00 89 1016.9
20260506071516 52 331 0.0 4.3 0.00 0.00 0.00 90 1017.0
20260506061510 52 105 0.0 4.3 0.00 0.00 0.00 89 1016.5
20260506044524 53 222 0.9 2.6 0.00 0.00 0.00 86 1016.1
20260506043004 54 75 0.9 3.5 0.00 0.00 0.00 85 1015.9
20260506041517 55 324 0.9 2.6 0.00 0.00 0.00 84 1015.8
20260506040013 56 115 0.0 1.7 0.00 0.00 0.00 82 1015.6
20260506034518 58 194 0.0 1.7 0.00 0.00 0.00 80 1015.4
20260506033029 59 190 0.0 2.6 0.00 0.00 0.00 78 1015.2
20260506031507 59 250 0.0 1.7 0.00 0.00 0.00 78 1015.1
20260506030034 60 230 0.0 2.6 0.00 0.00 0.00 77 1015.1
20260506024530 60 208 0.9 5.2 0.00 0.00 0.00 76 1015.1
20260506023021 60 234 0.0 1.7 0.00 0.00 0.00 76 1015.1
20260506021526 61 264 0.9 2.6 0.00 0.00 0.00 76 1015.2
20260506020013 61 264 0.9 5.2 0.00 0.00 0.00 75 1015.1
20260506014517 62 253 0.9 1.7 0.00 0.00 0.00 72 1015.1
20260506013026 63 275 0.0 1.7 0.00 0.00 0.00 71 1015.1
20260506011527 64 246 0.9 4.3 0.00 0.00 0.00 70 1015.2
20260506010029 63 44 0.0 2.6 0.00 0.00 0.00 70 1015.3
20260506004518 63 169 0.0 2.6 0.00 0.00 0.00 70 1015.4
20260506003018 63 176 0.9 3.5 0.00 0.00 0.00 70 1015.5
20260506001524 63 333 0.9 3.5 0.00 0.00 0.00 72 1015.6
20260506000036 62 141 0.0 3.5 0.00 0.00 0.00 73 1015.8
20260505234516 62 133 0.0 1.7 0.00 0.00 0.00 73 1015.8
20260505233029 62 200 0.9 3.5 0.00 0.00 0.00 74 1016.1
20260505231531 62 186 0.9 3.5 0.00 0.00 0.00 74 1016.3
20260505230032 62 150 0.9 4.3 0.00 0.00 0.00 76 1016.3
20260505224507 62 147 1.7 5.2 0.00 0.00 0.00 74 1016.4
20260505223040 62 282 0.9 4.3 0.00 0.00 0.00 74 1016.6
20260505221518 62 9 2.6 6.1 0.00 0.00 0.00 74 1016.6
20260505220037 62 234 1.7 5.2 0.00 0.00 0.00 75 1016.7
20260505214513 62 229 0.9 6.1 0.00 0.00 0.00 74 1016.7